Time,TemperatureF,DewpointF,PressureIn,WindDirection,WindDirectionDegrees,WindSpeedMPH,WindSpeedGustMPH,Humidity,HourlyPrecipIn,Conditions,Clouds,dailyrainin,SoftwareType,DateUTC
2013-12-08 00:09:00,48.2,45.4,30.20,WSW,237,6.0,6.0,90,0.00,,,0.00,Wunderground v.1.13,2013-12-08 00:09:00,
2013-12-08 00:19:00,48.1,45.3,30.20,WSW,239,6.0,6.0,90,0.00,,,0.00,Wunderground v.1.13,2013-12-08 00:19:00,
2013-12-08 00:29:00,48.0,45.2,30.19,WSW,248,6.0,10.0,90,0.00,,,0.00,Wunderground v.1.13,2013-12-08 00:29:00,
2013-12-08 00:39:00,47.5,44.7,30.19,SW,230,5.0,5.0,90,0.00,,,0.00,Wunderground v.1.13,2013-12-08 00:39:00,
2013-12-08 00:49:00,47.8,45.0,30.19,SW,230,3.0,5.0,90,0.00,,,0.00,Wunderground v.1.13,2013-12-08 00:49:00,
2013-12-08 00:59:00,47.8,45.0,30.19,SW,230,3.0,6.0,90,0.00,,,0.00,Wunderground v.1.13,2013-12-08 00:59:00,
2013-12-08 01:08:00,47.6,44.8,30.19,SW,232,4.0,6.0,90,0.00,,,0.00,Wunderground v.1.13,2013-12-08 01:08:00,
2013-12-08 01:18:00,47.6,44.8,30.19,SW,232,4.0,8.0,90,0.00,,,0.00,Wunderground v.1.13,2013-12-08 01:18:00,
2013-12-08 01:28:00,47.8,45.0,30.19,SW,232,5.0,5.0,90,0.00,,,0.00,Wunderground v.1.13,2013-12-08 01:28:00,
2013-12-08 01:38:00,47.6,44.8,30.19,SW,232,4.0,4.0,90,0.00,,,0.00,Wunderground v.1.13,2013-12-08 01:38:00,
2013-12-08 01:48:00,47.5,44.7,30.19,SW,232,2.0,2.0,90,0.00,,,0.00,Wunderground v.1.13,2013-12-08 01:48:00,
2013-12-08 01:58:00,46.9,44.1,30.19,SW,230,0.0,0.0,90,0.00,,,0.00,Wunderground v.1.13,2013-12-08 01:58:00,
2013-12-08 02:09:00,46.2,43.7,30.19,SW,232,0.0,0.0,91,0.00,,,0.00,Wunderground v.1.13,2013-12-08 02:09:00,
2013-12-08 02:19:00,46.3,43.8,30.18,SW,232,0.0,0.0,91,0.00,,,0.00,Wunderground v.1.13,2013-12-08 02:19:00,
2013-12-08 02:29:00,45.0,42.5,30.18,SW,232,0.0,2.0,91,0.00,,,0.00,Wunderground v.1.13,2013-12-08 02:29:00,
2013-12-08 02:39:00,44.7,42.2,30.18,SW,232,1.0,2.0,91,0.00,,,0.00,Wunderground v.1.13,2013-12-08 02:39:00,
2013-12-08 02:49:00,43.8,41.3,30.19,SW,232,0.0,1.0,91,0.00,,,0.00,Wunderground v.1.13,2013-12-08 02:49:00,
2013-12-08 02:59:00,44.4,42.2,30.19,SW,230,0.0,1.0,92,0.00,,,0.00,Wunderground v.1.13,2013-12-08 02:59:00,
2013-12-08 03:09:00,46.6,44.4,30.19,WSW,258,3.0,4.0,92,0.00,,,0.00,Wunderground v.1.13,2013-12-08 03:09:00,
2013-12-08 03:19:00,47.9,45.4,30.19,WSW,248,5.0,5.0,91,0.00,,,0.00,Wunderground v.1.13,2013-12-08 03:19:00,
2013-12-08 03:29:00,48.1,45.6,30.18,WSW,239,4.0,4.0,91,0.00,,,0.00,Wunderground v.1.13,2013-12-08 03:29:00,
2013-12-08 03:39:00,48.2,45.7,30.18,WSW,246,4.0,4.0,91,0.00,,,0.00,Wunderground v.1.13,2013-12-08 03:39:00,
2013-12-08 03:49:00,48.2,45.4,30.19,WSW,246,3.0,3.0,90,0.00,,,0.00,Wunderground v.1.13,2013-12-08 03:49:00,
2013-12-08 04:09:00,48.4,45.6,30.18,West,278,4.0,5.0,90,0.00,,,0.00,Wunderground v.1.13,2013-12-08 04:09:00,
2013-12-08 04:19:00,48.4,45.6,30.18,West,275,5.0,5.0,90,0.00,,,0.00,Wunderground v.1.13,2013-12-08 04:19:00,
2013-12-08 04:29:00,48.2,45.4,30.18,West,275,5.0,5.0,90,0.00,,,0.00,Wunderground v.1.13,2013-12-08 04:29:00,
2013-12-08 04:39:00,47.9,45.1,30.18,WSW,253,5.0,5.0,90,0.00,,,0.00,Wunderground v.1.13,2013-12-08 04:39:00,
2013-12-08 04:49:00,47.9,45.1,30.18,WSW,247,6.0,7.0,90,0.00,,,0.00,Wunderground v.1.13,2013-12-08 04:49:00,
2013-12-08 04:59:00,47.9,45.1,30.18,WSW,243,6.0,6.0,90,0.00,,,0.00,Wunderground v.1.13,2013-12-08 04:59:00,
2013-12-08 05:09:00,47.9,45.1,30.18,SW,232,6.0,7.0,90,0.00,,,0.00,Wunderground v.1.13,2013-12-08 05:09:00,
2013-12-08 05:19:00,47.9,45.1,30.18,SW,229,6.0,6.0,90,0.00,,,0.00,Wunderground v.1.13,2013-12-08 05:19:00,
2013-12-08 05:29:00,47.9,45.1,30.18,SW,233,6.0,6.0,90,0.00,,,0.00,Wunderground v.1.13,2013-12-08 05:29:00,
2013-12-08 05:38:00,47.8,45.0,30.18,SW,232,5.0,7.0,90,0.00,,,0.00,Wunderground v.1.13,2013-12-08 05:38:00,
2013-12-08 05:49:00,47.8,45.0,30.18,SW,233,6.0,6.0,90,0.00,,,0.00,Wunderground v.1.13,2013-12-08 05:49:00,
2013-12-08 05:58:00,47.6,44.8,30.18,SW,236,5.0,5.0,90,0.00,,,0.00,Wunderground v.1.13,2013-12-08 05:58:00,
2013-12-08 06:09:00,47.6,44.8,30.18,SW,234,4.0,4.0,90,0.00,,,0.00,Wunderground v.1.13,2013-12-08 06:09:00,
2013-12-08 06:19:00,47.9,45.1,30.18,SW,234,3.0,3.0,90,0.00,,,0.00,Wunderground v.1.13,2013-12-08 06:19:00,
2013-12-08 06:29:00,48.2,45.4,30.18,SW,236,2.0,5.0,90,0.00,,,0.00,Wunderground v.1.13,2013-12-08 06:29:00,
2013-12-08 06:39:00,48.1,45.3,30.18,SW,234,3.0,3.0,90,0.00,,,0.00,Wunderground v.1.13,2013-12-08 06:39:00,
2013-12-08 06:49:00,48.2,45.4,30.18,WSW,244,4.0,4.0,90,0.00,,,0.00,Wunderground v.1.13,2013-12-08 06:49:00,
2013-12-08 06:59:00,48.2,45.4,30.19,WSW,256,6.0,6.0,90,0.00,,,0.00,Wunderground v.1.13,2013-12-08 06:59:00,
2013-12-08 07:09:00,48.2,45.4,30.19,WSW,244,6.0,8.0,90,0.00,,,0.00,Wunderground v.1.13,2013-12-08 07:09:00,
2013-12-08 07:19:00,48.5,45.7,30.20,WSW,248,9.0,11.0,90,0.00,,,0.00,Wunderground v.1.13,2013-12-08 07:19:00,
2013-12-08 07:29:00,48.7,45.9,30.20,West,260,10.0,10.0,90,0.00,,,0.00,Wunderground v.1.13,2013-12-08 07:29:00,
2013-12-08 07:38:00,48.5,45.7,30.20,WSW,241,9.0,10.0,90,0.00,,,0.00,Wunderground v.1.13,2013-12-08 07:38:00,
2013-12-08 07:48:00,48.4,45.6,30.20,West,270,8.0,8.0,90,0.00,,,0.00,Wunderground v.1.13,2013-12-08 07:48:00,
2013-12-08 08:10:00,48.3,45.5,30.20,WSW,248,7.0,13.0,90,0.00,,,0.00,Wunderground v.1.13,2013-12-08 08:10:00,
2013-12-08 08:19:00,48.4,45.6,30.20,SW,227,6.0,7.0,90,0.00,,,0.00,Wunderground v.1.13,2013-12-08 08:19:00,
2013-12-08 08:29:00,48.2,45.4,30.20,SW,217,6.0,10.0,90,0.00,,,0.00,Wunderground v.1.13,2013-12-08 08:29:00,
2013-12-08 08:39:00,48.5,45.7,30.20,SW,230,9.0,11.0,90,0.00,,,0.00,Wunderground v.1.13,2013-12-08 08:39:00,
2013-12-08 08:49:00,48.7,45.9,30.20,SSW,213,9.0,9.0,90,0.00,,,0.00,Wunderground v.1.13,2013-12-08 08:49:00,
2013-12-08 08:59:00,48.7,45.9,30.19,SW,215,7.0,10.0,90,0.00,,,0.00,Wunderground v.1.13,2013-12-08 08:59:00,
2013-12-08 09:09:00,48.8,46.0,30.19,SW,223,7.0,7.0,90,0.00,,,0.00,Wunderground v.1.13,2013-12-08 09:09:00,
2013-12-08 09:19:00,49.1,46.3,30.20,SW,233,9.0,9.0,90,0.00,,,0.00,Wunderground v.1.13,2013-12-08 09:19:00,
2013-12-08 09:29:00,49.3,46.5,30.20,WSW,240,8.0,9.0,90,0.00,,,0.00,Wunderground v.1.13,2013-12-08 09:29:00,
2013-12-08 09:39:00,49.4,46.6,30.20,SW,223,8.0,8.0,90,0.00,,,0.00,Wunderground v.1.13,2013-12-08 09:39:00,
2013-12-08 09:49:00,49.7,46.9,30.20,West,260,8.0,8.0,90,0.00,,,0.00,Wunderground v.1.13,2013-12-08 09:49:00,
2013-12-08 09:59:00,50.0,46.9,30.20,SW,232,9.0,12.0,89,0.00,,,0.00,Wunderground v.1.13,2013-12-08 09:59:00,
2013-12-08 10:09:00,50.2,47.1,30.20,WSW,248,12.0,13.0,89,0.00,,,0.00,Wunderground v.1.13,2013-12-08 10:09:00,
2013-12-08 10:19:00,50.6,47.2,30.21,WSW,248,13.0,16.0,88,0.00,,,0.00,Wunderground v.1.13,2013-12-08 10:19:00,
2013-12-08 10:28:00,50.9,47.2,30.21,WSW,241,11.0,11.0,87,0.00,,,0.00,Wunderground v.1.13,2013-12-08 10:28:00,
2013-12-08 10:39:00,51.2,47.5,30.21,WSW,258,10.0,10.0,87,0.00,,,0.00,Wunderground v.1.13,2013-12-08 10:39:00,
2013-12-08 10:48:00,51.3,47.6,30.21,WSW,258,11.0,12.0,87,0.00,,,0.00,Wunderground v.1.13,2013-12-08 10:48:00,
2013-12-08 10:58:00,51.3,47.3,30.21,West,261,11.0,14.0,86,0.00,,,0.00,Wunderground v.1.13,2013-12-08 10:58:00,
2013-12-08 11:10:00,51.6,47.5,30.21,SW,222,10.0,14.0,86,0.00,,,0.00,Wunderground v.1.13,2013-12-08 11:10:00,
2013-12-08 11:19:00,51.8,47.7,30.21,WSW,250,10.0,12.0,86,0.00,,,0.00,Wunderground v.1.13,2013-12-08 11:19:00,
2013-12-08 11:30:00,51.9,47.5,30.21,SW,225,9.0,16.0,85,0.00,,,0.00,Wunderground v.1.13,2013-12-08 11:30:00,
2013-12-08 11:40:00,52.1,47.7,30.20,SW,225,10.0,17.0,85,0.00,,,0.00,Wunderground v.1.13,2013-12-08 11:40:00,
2013-12-08 11:50:00,52.1,47.7,30.20,SW,225,10.0,17.0,85,0.00,,,0.00,Wunderground v.1.13,2013-12-08 11:50:00,
2013-12-08 12:00:00,52.4,47.7,30.20,SW,225,12.0,21.0,84,0.00,,,0.00,Wunderground v.1.13,2013-12-08 12:00:00,
2013-12-08 12:10:00,52.4,47.4,30.20,SW,225,12.0,24.0,83,0.00,,,0.00,Wunderground v.1.13,2013-12-08 12:10:00,
2013-12-08 12:20:00,52.4,47.4,30.20,SW,225,12.0,24.0,83,0.00,,,0.00,Wunderground v.1.13,2013-12-08 12:20:00,
2013-12-08 12:30:00,52.6,47.6,30.19,SW,225,12.0,20.0,83,0.00,,,0.00,Wunderground v.1.13,2013-12-08 12:30:00,
2013-12-08 12:40:00,52.5,47.8,30.19,SW,225,13.0,20.0,84,0.00,,,0.00,Wunderground v.1.13,2013-12-08 12:40:00,
2013-12-08 12:50:00,52.5,47.8,30.19,SW,225,13.0,20.0,84,0.00,,,0.00,Wunderground v.1.13,2013-12-08 12:50:00,
2013-12-08 13:00:00,52.1,47.4,30.19,SW,225,13.0,20.0,84,0.00,,,0.00,Wunderground v.1.13,2013-12-08 13:00:00,
2013-12-08 13:10:00,52.0,47.3,30.18,SW,225,13.0,21.0,84,0.00,,,0.00,Wunderground v.1.13,2013-12-08 13:10:00,
2013-12-08 13:20:00,52.0,47.3,30.18,SW,225,13.0,21.0,84,0.00,,,0.00,Wunderground v.1.13,2013-12-08 13:20:00,
2013-12-08 13:30:00,51.8,47.1,30.18,SW,225,12.0,20.0,84,0.00,,,0.00,Wunderground v.1.13,2013-12-08 13:30:00,
2013-12-08 13:40:00,51.5,46.8,30.18,SW,225,12.0,20.0,84,0.00,,,0.00,Wunderground v.1.13,2013-12-08 13:40:00,
2013-12-08 13:50:00,51.5,46.8,30.18,SW,225,12.0,20.0,84,0.00,,,0.00,Wunderground v.1.13,2013-12-08 13:50:00,
2013-12-08 14:00:00,51.3,46.6,30.18,WSW,248,14.0,27.0,84,0.00,,,0.00,Wunderground v.1.13,2013-12-08 14:00:00,
2013-12-08 14:10:00,51.4,46.7,30.18,SW,225,15.0,22.0,84,0.00,,,0.00,Wunderground v.1.13,2013-12-08 14:10:00,
2013-12-08 14:20:00,51.4,46.7,30.18,SW,225,15.0,22.0,84,0.00,,,0.00,Wunderground v.1.13,2013-12-08 14:20:00,
2013-12-08 14:30:00,51.1,46.7,30.18,SW,225,13.0,19.0,85,0.00,,,0.00,Wunderground v.1.13,2013-12-08 14:30:00,
2013-12-08 14:40:00,50.9,46.9,30.18,SW,225,11.0,19.0,86,0.00,,,0.00,Wunderground v.1.13,2013-12-08 14:40:00,
2013-12-08 14:50:00,50.9,46.9,30.18,SW,225,11.0,19.0,86,0.00,,,0.00,Wunderground v.1.13,2013-12-08 14:50:00,
2013-12-08 15:00:00,50.7,46.7,30.18,SW,225,10.0,18.0,86,0.00,,,0.00,Wunderground v.1.13,2013-12-08 15:00:00,
2013-12-08 15:10:00,50.7,46.7,30.18,SW,225,8.0,14.0,86,0.00,,,0.00,Wunderground v.1.13,2013-12-08 15:10:00,
2013-12-08 15:20:00,50.7,46.7,30.18,SW,225,8.0,14.0,86,0.00,,,0.00,Wunderground v.1.13,2013-12-08 15:20:00,
2013-12-08 15:30:00,50.6,46.6,30.18,SW,229,7.0,8.0,86,0.00,,,0.00,Wunderground v.1.13,2013-12-08 15:30:00,
2013-12-08 15:40:00,50.5,46.5,30.18,SW,234,9.0,10.0,86,0.00,,,0.00,Wunderground v.1.13,2013-12-08 15:40:00,
2013-12-08 15:50:00,50.5,46.5,30.18,SW,215,12.0,12.0,86,0.00,,,0.00,Wunderground v.1.13,2013-12-08 15:50:00,
2013-12-08 16:10:00,50.4,46.4,30.18,WSW,248,12.0,20.0,86,0.00,,,0.00,Wunderground v.1.13,2013-12-08 16:10:00,
2013-12-08 16:20:00,50.2,46.5,30.19,SW,236,11.0,18.0,87,0.00,,,0.00,Wunderground v.1.13,2013-12-08 16:20:00,
2013-12-08 16:29:00,50.0,46.3,30.19,WSW,251,10.0,10.0,87,0.00,,,0.00,Wunderground v.1.13,2013-12-08 16:29:00,
2013-12-08 16:39:00,50.0,46.3,30.19,WSW,247,8.0,8.0,87,0.00,,,0.00,Wunderground v.1.13,2013-12-08 16:39:00,
2013-12-08 16:49:00,49.9,46.2,30.20,SW,229,8.0,8.0,87,0.00,,,0.00,Wunderground v.1.13,2013-12-08 16:49:00,
2013-12-08 16:59:00,49.9,46.5,30.20,SW,230,9.0,9.0,88,0.00,,,0.00,Wunderground v.1.13,2013-12-08 16:59:00,
2013-12-08 17:09:00,50.0,46.6,30.20,WSW,243,8.0,8.0,88,0.00,,,0.00,Wunderground v.1.13,2013-12-08 17:09:00,
2013-12-08 17:19:00,50.2,46.8,30.20,WSW,243,9.0,9.0,88,0.00,,,0.00,Wunderground v.1.13,2013-12-08 17:19:00,
2013-12-08 17:29:00,50.2,46.8,30.20,WSW,251,7.0,7.0,88,0.00,,,0.00,Wunderground v.1.13,2013-12-08 17:29:00,
2013-12-08 17:39:00,50.2,46.8,30.20,SW,226,5.0,6.0,88,0.00,,,0.00,Wunderground v.1.13,2013-12-08 17:39:00,
2013-12-08 17:49:00,50.3,46.9,30.20,WSW,254,6.0,7.0,88,0.00,,,0.00,Wunderground v.1.13,2013-12-08 17:49:00,
2013-12-08 17:59:00,50.3,46.6,30.20,SW,225,7.0,14.0,87,0.00,,,0.00,Wunderground v.1.13,2013-12-08 17:59:00,
2013-12-08 18:09:00,50.3,46.6,30.20,West,268,8.0,12.0,87,0.00,,,0.00,Wunderground v.1.13,2013-12-08 18:09:00,
2013-12-08 18:19:00,50.2,46.8,30.20,WSW,256,8.0,8.0,88,0.00,,,0.00,Wunderground v.1.13,2013-12-08 18:19:00,
2013-12-08 18:29:00,50.1,46.7,30.21,WSW,248,8.0,14.0,88,0.00,,,0.00,Wunderground v.1.13,2013-12-08 18:29:00,
2013-12-08 18:39:00,50.2,46.8,30.21,WSW,246,9.0,11.0,88,0.00,,,0.00,Wunderground v.1.13,2013-12-08 18:39:00,
2013-12-08 18:49:00,50.2,46.8,30.21,WSW,246,10.0,10.0,88,0.00,,,0.00,Wunderground v.1.13,2013-12-08 18:49:00,
2013-12-08 18:59:00,50.3,46.9,30.21,SW,229,9.0,9.0,88,0.00,,,0.00,Wunderground v.1.13,2013-12-08 18:59:00,
2013-12-08 19:09:00,50.3,46.9,30.21,WSW,251,9.0,9.0,88,0.00,,,0.00,Wunderground v.1.13,2013-12-08 19:09:00,
2013-12-08 19:19:00,50.3,46.9,30.22,SW,233,8.0,8.0,88,0.00,,,0.00,Wunderground v.1.13,2013-12-08 19:19:00,
2013-12-08 19:29:00,50.4,47.0,30.22,SW,225,9.0,14.0,88,0.00,,,0.00,Wunderground v.1.13,2013-12-08 19:29:00,
2013-12-08 19:39:00,50.5,47.1,30.22,SW,224,9.0,9.0,88,0.00,,,0.00,Wunderground v.1.13,2013-12-08 19:39:00,
2013-12-08 19:49:00,50.5,47.1,30.22,WSW,247,10.0,10.0,88,0.00,,,0.00,Wunderground v.1.13,2013-12-08 19:49:00,
2013-12-08 20:09:00,50.5,47.1,30.22,SW,225,9.0,17.0,88,0.00,,,0.00,Wunderground v.1.13,2013-12-08 20:09:00,
2013-12-08 20:19:00,50.6,47.2,30.22,SW,220,10.0,10.0,88,0.00,,,0.00,Wunderground v.1.13,2013-12-08 20:19:00,
2013-12-08 20:29:00,50.6,47.2,30.22,SW,222,10.0,10.0,88,0.00,,,0.00,Wunderground v.1.13,2013-12-08 20:29:00,
2013-12-08 20:39:00,50.6,47.2,30.22,WSW,239,9.0,9.0,88,0.00,,,0.00,Wunderground v.1.13,2013-12-08 20:39:00,
2013-12-08 20:49:00,50.6,47.2,30.22,SW,234,8.0,10.0,88,0.00,,,0.00,Wunderground v.1.13,2013-12-08 20:49:00,
2013-12-08 20:58:00,50.6,47.2,30.22,WSW,239,10.0,12.0,88,0.00,,,0.00,Wunderground v.1.13,2013-12-08 20:58:00,
2013-12-08 21:08:00,50.7,47.3,30.22,SW,229,9.0,9.0,88,0.00,,,0.00,Wunderground v.1.13,2013-12-08 21:08:00,
2013-12-08 21:18:00,50.7,47.3,30.22,SW,223,11.0,11.0,88,0.00,,,0.00,Wunderground v.1.13,2013-12-08 21:18:00,
2013-12-08 21:28:00,50.6,47.2,30.22,SW,227,11.0,14.0,88,0.00,,,0.00,Wunderground v.1.13,2013-12-08 21:28:00,
2013-12-08 21:38:00,50.7,47.3,30.22,SW,230,12.0,12.0,88,0.00,,,0.00,Wunderground v.1.13,2013-12-08 21:38:00,
2013-12-08 21:48:00,50.7,47.3,30.22,SW,216,10.0,15.0,88,0.00,,,0.00,Wunderground v.1.13,2013-12-08 21:48:00,
2013-12-08 21:58:00,50.6,47.2,30.22,SW,224,10.0,10.0,88,0.00,,,0.00,Wunderground v.1.13,2013-12-08 21:58:00,
2013-12-08 22:08:00,50.6,47.2,30.22,SW,226,8.0,8.0,88,0.00,,,0.00,Wunderground v.1.13,2013-12-08 22:08:00,
2013-12-08 22:18:00,50.6,47.2,30.22,SW,223,10.0,11.0,88,0.00,,,0.00,Wunderground v.1.13,2013-12-08 22:18:00,
2013-12-08 22:28:00,50.6,47.2,30.22,SW,226,11.0,14.0,88,0.00,,,0.00,Wunderground v.1.13,2013-12-08 22:28:00,
2013-12-08 22:38:00,50.6,47.2,30.22,WSW,241,12.0,14.0,88,0.00,,,0.00,Wunderground v.1.13,2013-12-08 22:38:00,
2013-12-08 22:48:00,50.5,46.8,30.21,SW,227,10.0,10.0,87,0.00,,,0.00,Wunderground v.1.13,2013-12-08 22:48:00,
2013-12-08 22:58:00,50.6,46.9,30.22,WSW,237,11.0,11.0,87,0.00,,,0.00,Wunderground v.1.13,2013-12-08 22:58:00,
2013-12-08 23:08:00,50.7,47.0,30.22,SW,220,11.0,11.0,87,0.00,,,0.00,Wunderground v.1.13,2013-12-08 23:08:00,
2013-12-08 23:18:00,50.6,46.9,30.22,SW,224,12.0,12.0,87,0.00,,,0.00,Wunderground v.1.13,2013-12-08 23:18:00,
2013-12-08 23:30:00,50.7,47.3,30.22,SW,225,11.0,17.0,88,0.00,,,0.00,Wunderground v.1.13,2013-12-08 23:30:00,
2013-12-08 23:40:00,50.7,47.0,30.22,SW,225,11.0,16.0,87,0.00,,,0.00,Wunderground v.1.13,2013-12-08 23:40:00,
2013-12-08 23:50:00,50.7,47.0,30.22,SW,225,11.0,16.0,87,0.00,,,0.00,Wunderground v.1.13,2013-12-08 23:50:00,